Location: Unspecified
(0.0000°N, 0.0000°E)
Time: 01:18:15
(UTC+00:00)

Tiros 1 despin weight - All Passes

Search period start: 31 July 2014 00:00
Search period end: 10 August 2014 00:00
Orbit: 602 x 653 km, 48.2° (Epoch: 30 July)

Date Brightness Start Highest point End Pass type
(mag) Time Alt. Az. Time Alt. Az. Time Alt. Az.
31 Jul - 00:21:16 10° NNE 00:23:19 13° NE 00:25:23 10° ENE night (unlit)
31 Jul - 02:00:41 10° WNW 02:04:54 43° SW 02:09:10 10° SSE night (unlit)
31 Jul - 12:29:24 10° S 12:33:12 24° SE 12:36:58 10° ENE daylight
31 Jul - 14:10:50 10° WSW 14:14:49 27° NW 14:18:46 10° N daylight
01 Aug - 00:38:44 10° NNW 00:42:50 37° NE 00:46:57 10° ESE night (unlit)
01 Aug - 02:21:48 10° W 02:24:25 15° SW 02:27:04 10° SSW night (unlit)
01 Aug - 12:47:58 10° SSW 12:52:41 68° SE 12:57:21 10° NE daylight
02 Aug - 00:57:52 10° NW 01:02:16 70° SW 01:06:43 10° SSE night (unlit)
02 Aug - 11:27:36 10° SSE 11:30:29 16° SE 11:33:22 10° E daylight
02 Aug - 13:07:41 10° WSW 13:12:08 41° NW 13:16:33 10° NNE daylight
02 Aug - 23:36:36 10° N 23:40:11 24° NE 23:43:47 10° ESE night (unlit)
03 Aug - 01:18:14 10° WNW 01:21:45 23° SW 01:25:18 10° S night (unlit)
03 Aug - 11:45:30 10° SSW 11:50:00 43° SE 11:54:29 10° ENE daylight
03 Aug - 13:28:56 10° W 13:31:38 15° NW 13:34:20 10° NNW daylight
03 Aug - 23:55:14 10° NW 23:59:39 74° NE 00:04:05 10° SE night (unlit)
04 Aug - 10:27:03 10° SE 10:27:46 10° SE 10:28:28 10° ESE daylight
04 Aug - 12:04:46 10° SW 12:09:28 64° NW 12:14:08 10° NNE daylight
04 Aug - 22:34:49 10° NNE 22:37:31 16° NE 22:40:14 10° E night (unlit)
05 Aug - 00:15:03 10° WNW 00:19:06 35° SW 00:23:11 10° SSE night (unlit)
05 Aug - 10:43:14 10° S 10:47:19 28° SE 10:51:23 10° ENE daylight
05 Aug - 12:25:14 10° WSW 12:28:56 23° NW 12:32:37 10° N daylight
05 Aug - 22:52:46 10° NNW 22:57:01 45° NE 23:01:16 10° SE night (unlit)
06 Aug - 00:36:44 10° WSW 00:38:37 12° SW 00:40:30 10° SSW night (unlit)
06 Aug - 11:02:02 10° SW 11:06:47 83° SE 11:11:30 10° NE daylight
06 Aug - 21:34:35 10° NE 21:34:50 10° NE 21:35:05 10° NE night (unlit)
06 Aug - 23:12:07 10° NW 23:16:27 56° SW 23:20:49 10° SSE night (unlit)
07 Aug - 09:41:15 10° S 09:44:37 19° SE 09:47:58 10° E daylight
07 Aug - 11:21:57 10° WSW 11:26:14 34° NW 11:30:30 10° NNE daylight
07 Aug - 21:50:30 10° N 21:54:22 29° NE 21:58:13 10° ESE night (unlit)
07 Aug - 23:32:46 10° W 23:35:56 19° SW 23:39:06 10° S night (unlit)
08 Aug - 09:59:29 10° SSW 10:04:06 53° SE 10:08:42 10° NE daylight
08 Aug - 11:43:46 10° WNW 11:45:45 12° NW 11:47:45 10° NNW daylight
08 Aug - 22:09:22 10° NW 22:13:49 90° SW 22:18:15 10° SE night (unlit)
09 Aug - 08:39:51 10° SSE 08:41:53 13° SE 08:43:55 10° ESE daylight
09 Aug - 10:18:57 10° SW 10:23:32 52° NW 10:28:08 10° NNE daylight
09 Aug - 20:48:30 10° N 20:51:41 19° NE 20:54:52 10° E visible
09 Aug - 22:29:24 10° WNW 22:33:15 29° SW 22:37:07 10° S night (unlit)
